Location: Ajisawe
(8.4333°N, 4.3833°E)
Time: 10:41:09
(UTC+00:00)

Vanguard 2 Rocket - Pass Details

Date: 25 April 2021
Orbit: 553 x 3326 km, 32.9° (Epoch: 07 May)

Event Time Altitude Azimuth Distance (km) Brightness Sun altitude
Rises 09:27:37 0° 245° (WSW) 4,293 10.0 57.1°
Reaches altitude 10° 09:30:00 10° 248° (WSW) 3,598 9.7 57.6°
Maximum altitude 09:39:50 70° 330° (NNW) 2,258 9.8 60.0°
Drops below altitude 10° 09:57:06 10° 52° (NE) 5,939 11.6 64.2°
Sets 10:02:22 0° 54° (NE) 7,171 11.8 65.4°
